Location: Unspecified
(0.0000°N, 0.0000°E)
Time: 22:59:50
(UTC+00:00)

ISS - Pass Details

Date: 21 April 2018
Orbit: 403 x 406 km, 51.6° (Epoch: 25 April)

Event Time Altitude Azimuth Distance (km) Brightness Sun altitude
Rises 05:23:02 0° 190° (S) 2,311 -0.2 -8.7°
Reaches altitude 10° 05:25:37 10° 169° (SSE) 1,450 -1.0 -8.1°
Maximum altitude 05:27:49 17° 126° (SE) 1,106 -1.0 -7.6°
Drops below altitude 10° 05:30:00 10° 83° (E) 1,445 0.8 -7.0°
Sets 05:32:34 0° 62° (ENE) 2,301 1.8 -6.4°
